Location: ??????????
(31.2156°N, 29.9553°E)
Time: 08:50:01
(UTC+00:00)

IRS-1C Rocket - Pass Details

Date: 03 March 2021
Orbit: 800 x 806 km, 99.0° (Epoch: 15 April)

Event Time Altitude Azimuth Distance (km) Brightness Sun altitude
Rises 16:19:37 0° 154° (SSE) 3,298 7.1 -5.0°
Reaches altitude 10° 16:21:58 10° 150° (SSE) 2,372 6.3 -5.5°
Maximum altitude 16:27:05 55° 73° (ENE) 958 4.2 -6.6°
Drops below altitude 10° 16:32:13 10° 357° (N) 2,388 6.6 -7.7°
Sets 16:34:35 0° 353° (N) 3,322 7.4 -8.2°
